Flag for Ukraine Weather past 2 weeks in Kryvyi Rih, Ukraine

Now
63 °F

Partly sunny.


Feels Like: 63 °F
Forecast: 44 / 66 °F
Wind: 8 mph from Northwest

Location: Krivyy Rih / Dnipropetrovs'k

Current Time: May 4, 2015 at 2:07:42 PM

Latest Report: May 4, 2015 at 1:30 PM


Visibility: N/A

Pressure: 29.95 "Hg

Humidity: 49%

Dew point: 43 °F

Location of Kryvyi RihLocation

Historic Weather in Kryvyi Rih — Graph

°F

Kryvyi Rih temperature yesterday

Maximum temperature yesterday: 55 °F (at 2:00 PM)
Minimum temperature yesterday: 52 °F (at 12:00 AM)
Average temperature yesterday: 53 °F

Past Weeks' High & Low Weather Summary

 TemperatureHumidityPressure
High75 °F (Apr 28, 4:00 PM)100% (Apr 27, 5:00 AM)30.07 "Hg (Apr 27, 5:00 AM)
Low32 °F (Apr 21, 4:00 AM)25% (Apr 24, 5:00 PM)29.50 "Hg (Apr 20, 4:00 PM)
Average52 °F67%29.89 "Hg
* Reported Apr 19 1:00 PM — May 4 1:00 PM, Kryvyi Rih, Weather by CustomWeather, © 2015

Note: Actual official high and low records may vary slightly from our data, if they occured in-between our weather recording intervals... More about our weather records

Advertising

Kryvyi Rih weather history for previous 24 hours

 ConditionsComfort  
Time TempWeatherWind HumidityBarometerVisibility
1:00 PM
Mon, May 4
63 °FPartly sunny.10 mph49%29.95 "HgN/A
12:30 PM61 °FPartly sunny.10 mph48%29.95 "HgN/A
12:00 PM61 °FPartly sunny.10 mph48%29.95 "HgN/A
11:30 AM59 °FScattered clouds.13 mph51%29.98 "HgN/A
11:00 AM59 °FScattered clouds.10 mph51%29.95 "HgN/A
10:30 AM59 °FScattered clouds.13 mph55%29.95 "HgN/A
10:00 AM59 °FPassing clouds.13 mph55%29.95 "HgN/A
9:30 AM55 °FPassing clouds.13 mph67%29.95 "HgN/A
9:00 AM55 °FPassing clouds.10 mph67%29.95 "HgN/A
8:30 AM52 °FPassing clouds.13 mph82%29.95 "HgN/A
8:00 AM52 °FSunny.13 mph82%29.95 "Hg10 mi
7:30 AM50 °FSunny.10 mph82%29.95 "Hg10 mi
7:00 AM50 °FSunny.13 mph82%29.92 "Hg10 mi
6:30 AM46 °FSunny.10 mph93%29.92 "Hg10 mi
6:00 AM46 °FClear.10 mph93%29.89 "Hg10 mi
5:30 AM48 °FClear.10 mph94%29.89 "Hg10 mi
5:00 AM48 °FClear.13 mph94%29.89 "Hg10 mi
4:30 AM50 °FClear.13 mph94%29.86 "Hg10 mi
4:00 AM50 °FOvercast.10 mph94%29.86 "HgN/A
3:30 AM52 °FOvercast.10 mph88%29.86 "HgN/A
3:00 AM52 °FOvercast.13 mph88%29.86 "HgN/A
2:30 AM52 °FOvercast.10 mph88%29.86 "HgN/A
2:00 AM52 °FOvercast.10 mph88%29.86 "HgN/A
1:30 AM52 °FOvercast.13 mph94%29.86 "HgN/A
1:00 AM52 °FLow clouds.13 mph94%29.83 "HgN/A
12:30 AM54 °FLow clouds.10 mph88%29.83 "HgN/A
12:00 AM54 °FLow clouds.10 mph88%29.83 "HgN/A
11:30 PM
Sun, May 3
54 °FOvercast.10 mph88%29.83 "HgN/A
11:00 PM54 °FOvercast.13 mph88%29.83 "HgN/A
10:30 PM54 °FFog.3 mph94%29.83 "Hg1 mi
10:00 PM54 °FFog.3 mph94%29.83 "Hg2 mi
9:30 PM54 °FOvercast.No wind100%29.80 "HgN/A
9:00 PM54 °FOvercast.No wind100%29.80 "HgN/A
8:30 PM55 °FLow clouds.1 mph94%29.80 "HgN/A
8:00 PM55 °FOvercast.3 mph94%29.80 "HgN/A
7:30 PM54 °FOvercast.3 mph94%29.80 "HgN/A
7:00 PM54 °FLight rain. Low clouds.6 mph94%29.80 "HgN/A
6:30 PM54 °FLight rain. Low clouds.8 mph94%29.80 "Hg3 mi
6:00 PM54 °FLight rain. Low clouds.8 mph94%29.80 "HgN/A
5:30 PM54 °FLight rain. Low clouds.8 mph94%29.80 "Hg3 mi
5:00 PM54 °FLight rain. Low clouds.8 mph94%29.80 "HgN/A
4:30 PM55 °FLight rain. Overcast.10 mph88%29.80 "Hg3 mi
4:00 PM55 °FLight rain. Low clouds.13 mph88%29.80 "HgN/A
3:30 PM55 °FLight rain. Low clouds.8 mph88%29.80 "HgN/A
3:00 PM55 °FLight rain. Low clouds.10 mph88%29.80 "Hg2 mi
2:30 PM55 °FLight rain. Low clouds.15 mph88%29.80 "Hg2 mi
2:00 PM55 °FLight rain. Overcast.10 mph88%29.80 "HgN/A
Weather by CustomWeather, © 2015

See weather overviewHow to use our weather pages